GFSFLT2_850_thetae_000.txt.gz
Theta_e
321 319 318 316 316 316 316 318 318 317 318 317 317 316 316 316 314 311 307 308 310 311 311 310 310 310 310 311 314 320 328 329
322 322 317 315 315 313 314 315 316 317 318 318 316 315 315 315 312 307 307 309 309 309 309 310 308 307 307 309 314 320 326 327
326 325 317 315 313 311 309 311 313 314 315 318 318 320 315 315 311 308 307 309 310 311 310 309 309 307 307 308 312 322 324 325
327 326 318 315 314 313 311 310 320 317 319 316 318 315 315 313 312 309 308 310 309 308 309 309 310 314 316 312 318 314 320 322
329 328 317 314 315 321 325 325 322 323 315 318 323 318 324 324 324 323 320 314 316 312 309 315 309 308 312 307 307 308 316 317
333 329 316 314 322 325 325 324 324 325 327 316 323 325 325 324 323 322 320 319 313 318 318 307 307 307 306 304 304 305 311 313
336 331 315 314 313 325 322 320 324 321 325 324 319 323 323 321 319 318 318 319 319 319 318 314 307 306 305 304 304 305 305 309
337 331 315 313 317 313 320 315 318 320 321 319 311 312 318 317 316 316 316 316 317 317 316 310 308 306 307 304 305 307 308 306
335 329 314 312 313 313 313 315 311 318 317 311 310 311 313 311 315 315 315 315 314 316 313 309 307 308 306 305 305 306 308 305
332 322 314 312 314 314 316 318 313 317 314 312 311 311 310 310 316 316 315 313 315 316 315 314 313 310 309 309 308 308 307 306
330 322 318 317 314 317 313 313 314 316 313 314 312 311 311 311 312 313 313 313 313 315 315 314 313 311 309 309 309 308 308 307
328 320 318 314 316 314 313 312 312 312 312 312 312 312 311 311 311 312 313 316 315 314 315 314 313 311 309 309 308 309 308 307
326 322 313 313 314 314 314 313 313 313 313 312 312 312 312 311 311 311 311 313 314 311 314 315 315 313 311 310 309 309 309 308
320 316 314 313 313 312 312 312 313 312 312 312 312 311 309 306 306 308 309 310 311 312 313 313 314 314 312 311 310 310 310 309
315 314 313 312 312 312 312 312 312 311 310 309 308 307 305 302 302 302 302 306 308 309 310 310 311 312 313 312 311 310 310 309
313 313 312 312 311 310 309 310 309 308 308 308 306 304 301 300 300 299 299 301 305 306 306 307 308 308 309 311 311 310 310 309
312 312 311 311 310 310 309 308 308 308 307 306 304 303 302 300 299 299 299 301 303 302 303 305 306 307 307 308 309 309 308 308
312 312 311 310 309 309 307 307 308 307 305 303 303 303 302 302 299 299 301 301 302 302 302 302 303 303 303 303 303 303 303 304
312 312 310 311 312 310 308 306 305 305 304 303 302 301 301 302 299 302 302 301 301 301 301 301 299 298 299 299 299 299 299 299
312 311 310 310 308 306 303 304 305 304 303 301 300 300 300 299 301 301 301 301 301 300 300 298 297 297 296 297 297 297 296 296

GFSFLT2_850_thetae_003.txt.gz
Theta_e
330 324 316 316 316 316 316 318 317 317 317 317 317 317 316 316 315 309 307 308 309 310 310 309 310 309 307 307 307 311 317 326
331 331 330 331 318 310 312 313 314 316 317 318 318 317 319 315 314 310 307 308 310 310 310 310 310 309 308 306 307 315 326 325
331 331 330 329 327 314 313 312 314 316 317 317 319 328 327 326 323 313 309 308 312 310 308 308 308 313 314 312 308 322 322 323
333 333 330 327 324 326 324 323 328 329 329 328 328 328 326 323 324 322 320 319 317 318 315 313 318 318 317 318 318 319 318 321
332 332 327 327 326 327 326 326 326 327 329 329 328 327 328 326 326 325 325 324 323 322 322 321 318 309 314 315 316 317 316 316
332 336 323 318 327 327 327 326 325 326 327 327 327 326 325 325 323 322 320 320 321 321 321 320 319 312 309 306 307 305 310 312
331 333 328 327 327 328 328 328 326 323 325 325 323 323 323 322 320 319 318 318 318 319 318 318 315 312 310 311 311 310 306 307
331 334 330 325 326 328 328 326 324 323 322 319 314 321 321 320 318 317 317 317 317 317 318 317 315 312 311 311 311 310 310 311
333 333 330 324 325 325 323 320 318 320 320 320 318 315 318 319 319 318 318 317 317 317 318 318 317 315 313 311 312 311 310 310
331 332 327 323 323 321 321 321 320 321 320 319 320 320 319 319 318 318 317 317 318 317 317 317 317 316 315 313 311 311 311 310
329 331 323 322 323 322 322 321 320 318 318 317 317 317 317 317 317 317 317 318 318 317 317 316 316 316 315 314 312 311 311 311
328 330 321 321 322 322 319 318 318 317 317 316 316 316 317 317 317 317 317 317 316 316 317 316 316 316 315 314 313 312 311 311
325 325 322 321 319 318 316 316 316 316 316 316 316 315 313 313 313 313 314 314 314 314 314 314 315 314 316 316 315 313 312 311
325 323 319 316 316 316 315 314 315 315 315 314 313 312 311 310 310 310 310 310 310 310 311 312 312 312 313 314 314 313 313 313
320 318 316 315 314 314 314 314 314 313 313 312 312 311 310 309 308 308 308 308 308 308 308 308 309 310 310 311 311 312 313 312
317 315 314 313 312 313 313 313 312 312 312 312 310 308 307 307 306 307 307 306 306 306 306 306 306 307 308 307 308 310 311 311
316 315 314 313 312 312 312 313 313 313 312 309 307 306 306 305 305 305 304 304 305 305 305 306 305 305 306 306 307 307 308 308
315 314 313 313 313 313 313 313 311 309 308 307 306 305 304 304 303 304 303 304 304 303 303 303 303 302 302 301 301 301 301 301
314 314 314 313 313 312 309 308 308 308 307 306 304 303 303 302 303 303 302 302 302 303 302 302 301 300 299 298 297 298 298 298
315 314 313 312 311 311 310 309 308 307 305 304 302 302 301 301 302 302 301 301 300 300 300 299 298 298 297 297 296 295 295 295

GFSFLT2_850_thetae_006.txt.gz
Theta_e
317 316 315 314 314 315 315 315 316 315 316 317 316 315 317 314 314 311 307 307 309 310 310 309 309 309 309 309 308 308 310 325
331 328 321 329 318 308 309 311 312 314 317 317 320 329 326 327 322 319 313 309 311 313 313 310 309 309 313 313 312 309 322 321
330 330 329 329 326 317 317 320 325 325 329 323 329 327 327 325 324 325 323 323 320 319 318 317 316 316 314 315 313 320 323 320
333 331 329 324 326 327 326 327 326 327 327 328 330 327 327 326 327 325 324 323 322 322 320 321 321 316 313 316 317 318 314 314
332 332 327 329 326 328 327 327 326 327 330 326 327 325 327 326 325 323 322 321 321 320 321 321 321 315 310 309 309 310 313 316
334 330 319 322 329 328 327 327 326 326 326 328 325 324 323 319 321 317 318 318 318 319 319 319 318 318 312 310 308 307 307 311
331 328 324 324 318 328 326 325 328 322 326 324 314 315 317 316 318 317 317 317 317 317 317 317 317 316 313 312 311 310 309 308
332 334 327 326 328 328 328 324 323 323 322 321 314 314 314 314 313 315 317 318 317 317 317 318 318 318 317 314 312 312 310 310
334 327 331 325 325 325 324 322 318 321 320 320 320 318 314 313 313 317 318 318 318 317 317 317 317 317 317 316 315 313 312 311
330 333 330 325 324 323 322 322 321 321 321 319 319 320 318 317 317 316 317 317 315 317 317 317 318 317 316 317 316 315 313 312
333 332 327 324 322 321 322 321 320 320 318 317 317 317 317 317 314 313 313 315 315 317 317 318 319 318 317 317 315 315 316 313
329 330 324 322 323 323 320 319 318 318 317 317 317 316 317 313 312 312 313 314 314 314 315 315 313 312 314 315 315 314 315 314
326 328 323 322 322 320 318 317 316 316 317 316 314 313 313 312 311 311 311 311 311 311 310 309 309 310 311 313 312 313 314 316
325 323 320 318 317 317 316 315 315 315 315 314 313 312 312 312 310 308 308 308 308 308 309 310 309 308 309 310 311 310 310 311
320 318 318 317 315 315 314 314 314 313 313 313 313 312 312 308 307 307 306 306 306 302 304 305 307 308 308 307 308 309 309 309
317 315 314 313 313 313 313 313 314 314 314 313 311 310 308 307 306 305 305 305 304 304 305 305 305 305 305 306 306 306 304 306
316 315 314 314 313 314 314 314 314 311 310 309 308 307 306 306 304 304 303 303 302 304 304 303 303 304 305 304 304 302 300 300
315 314 314 314 314 315 314 310 309 309 309 308 307 306 304 302 302 302 302 302 302 302 303 303 303 302 302 301 300 298 298 298
316 316 316 314 313 312 311 310 310 309 307 306 306 302 302 301 301 301 301 301 301 301 301 300 300 299 299 298 298 297 296 296
316 316 314 314 313 313 311 310 308 306 306 305 302 302 301 300 301 300 300 300 299 299 298 298 298 297 297 297 296 295 295 295

GFSFLT2_850_thetae_009.txt.gz
Theta_e
316 315 315 314 313 313 312 312 312 311 314 316 319 324 324 323 318 317 317 314 314 314 314 313 312 311 312 312 312 311 319 325
319 317 324 320 308 307 308 309 310 312 314 324 327 323 323 323 326 324 323 322 319 318 316 315 315 314 310 310 313 318 324 321
330 326 324 327 323 315 310 316 319 321 324 327 327 326 324 325 326 324 323 320 321 318 316 315 314 314 311 309 311 316 317 320
330 327 324 326 325 327 326 325 325 326 322 324 327 324 326 325 325 323 322 319 319 317 317 316 316 315 315 310 309 308 309 315
328 323 325 326 325 327 327 326 324 327 328 324 322 326 326 325 322 319 315 317 317 317 318 318 317 317 315 312 310 309 307 311
331 320 320 327 327 328 325 327 325 328 325 325 320 322 320 315 316 315 317 317 317 317 317 316 316 316 316 316 315 313 311 308
332 324 315 318 329 328 328 327 326 325 324 323 313 314 315 315 314 314 314 316 317 317 317 316 317 317 317 317 317 316 315 315
332 328 324 318 323 325 322 324 324 322 322 321 317 314 313 314 313 314 315 318 318 318 317 316 318 317 317 317 317 317 316 316
330 327 328 326 328 324 320 325 318 321 320 320 319 319 318 316 316 316 316 315 315 314 313 315 317 316 317 317 317 316 316 316
331 324 323 326 326 322 320 321 320 321 321 320 320 320 318 317 317 312 312 312 313 314 314 316 316 318 318 318 317 315 316 315
330 328 327 325 325 322 321 321 320 319 318 317 318 317 316 317 315 311 311 311 312 314 314 315 315 315 314 310 309 312 314 314
329 327 326 324 322 323 321 321 318 318 317 317 316 316 315 315 315 312 312 310 309 310 311 311 310 307 309 311 311 309 312 310
327 323 323 323 323 322 320 319 316 316 316 316 316 315 314 314 313 311 309 308 308 308 307 306 305 307 306 304 304 304 305 304
323 322 320 319 318 318 317 316 315 314 314 314 313 313 313 313 311 309 307 307 306 306 305 304 300 302 304 306 307 306 305 306
319 318 317 316 316 315 314 313 313 314 313 313 311 309 308 308 307 306 306 305 305 304 303 302 302 303 304 304 304 304 304 303
317 316 315 314 313 314 314 314 314 313 313 310 308 308 308 307 306 305 303 302 303 303 301 301 304 304 303 303 304 304 301 300
315 315 314 315 314 314 314 313 310 309 309 309 308 307 307 306 305 303 300 300 300 301 301 302 302 303 303 302 302 300 300 299
316 316 316 315 314 314 312 311 310 309 309 309 308 307 306 303 301 300 300 300 301 301 301 301 301 300 299 298 298 297 297 297
316 316 316 315 314 313 312 311 310 309 307 306 306 304 301 301 300 300 300 299 300 299 299 298 298 299 298 298 297 296 296 295
315 314 314 314 313 313 312 310 309 306 306 305 301 301 300 300 300 299 297 297 297 297 297 297 297 297 297 296 296 296 295 295

GFSFLT2_850_thetae_012.txt.gz
Theta_e
316 315 315 314 314 313 312 311 310 310 313 312 314 317 318 318 320 319 320 317 317 316 314 314 314 312 310 310 312 321 320 321
316 316 314 309 307 308 308 309 310 311 313 320 320 321 321 323 321 321 320 318 318 316 314 313 313 312 310 309 312 319 320 319
322 320 323 321 314 309 312 314 316 315 319 320 322 321 324 321 319 321 320 317 317 316 317 316 315 314 313 311 309 309 310 311
325 320 324 324 325 324 322 320 320 317 320 320 319 322 324 322 321 317 315 315 316 316 317 316 316 316 316 315 315 312 308 308
328 316 318 324 324 326 325 324 325 326 325 319 322 323 320 317 316 313 314 315 316 316 316 316 315 316 316 316 316 316 315 313
330 318 319 321 325 326 325 326 325 327 325 325 320 321 320 315 314 314 315 316 316 316 316 315 315 315 317 317 317 316 317 316
330 320 326 325 326 327 326 326 325 326 325 323 317 313 314 314 316 316 317 317 317 318 318 317 314 314 317 316 317 317 316 316
331 319 318 323 328 328 328 327 326 322 320 320 319 318 317 316 316 316 316 315 315 315 315 314 313 315 314 316 317 317 317 317
330 327 325 324 323 326 325 324 321 320 320 320 320 319 319 318 317 316 312 312 312 312 312 312 313 313 314 317 317 318 317 313
330 325 323 324 326 325 323 322 320 320 321 321 320 320 319 318 317 316 315 313 312 312 311 311 312 313 314 314 314 313 309 308
330 327 326 325 325 325 321 321 320 321 319 318 319 318 317 316 316 315 314 314 313 312 310 309 309 309 309 308 307 305 306 309
329 328 326 325 326 322 322 321 320 318 317 316 316 315 315 314 313 313 313 312 311 311 307 307 306 304 303 302 302 301 302 301
327 327 325 324 322 322 321 319 316 315 315 314 314 314 313 313 313 313 312 310 307 307 306 304 302 302 301 300 299 299 302 304
324 324 324 323 323 320 318 315 314 314 314 313 313 313 312 310 308 308 307 306 305 304 303 302 303 300 299 300 302 300 301 301
318 317 317 317 315 314 313 313 313 313 313 312 311 309 308 308 307 306 305 303 302 300 300 300 299 299 301 303 303 303 302 301
315 314 314 314 314 314 314 313 313 312 311 310 309 309 308 306 306 306 304 302 300 297 297 299 300 301 301 302 302 302 301 299
315 315 315 315 315 313 313 313 312 311 310 309 308 307 307 306 303 302 299 297 299 299 300 300 300 300 300 299 299 298 297 296
316 316 316 315 314 313 313 312 311 310 309 307 307 307 305 306 301 299 299 299 299 297 297 298 298 298 299 298 298 297 296 296
316 315 314 314 314 313 312 311 309 307 307 306 307 305 304 301 300 300 299 296 293 293 293 293 294 294 295 294 295 295 295 295
314 314 313 313 313 311 309 307 307 307 306 306 304 302 301 300 300 298 293 292 291 292 291 292 291 290 291 291 292 292 293 293

GFSFLT2_850_thetae_015.txt.gz
Theta_e
317 316 315 315 315 314 312 311 308 310 311 315 317 317 318 317 317 316 315 315 313 313 312 312 311 311 310 309 311 317 320 321
315 313 310 309 310 309 308 308 310 311 318 318 319 319 320 318 318 317 316 315 315 315 313 312 312 312 313 311 309 308 309 313
315 314 313 309 307 308 310 312 313 317 318 320 320 321 318 317 316 315 315 315 315 315 315 315 314 314 313 313 313 312 310 309
318 317 318 317 315 316 315 317 318 319 320 319 318 319 318 316 315 314 314 315 316 315 316 316 316 314 315 316 314 313 312 311
320 320 322 323 321 322 320 321 319 322 319 315 316 317 317 316 313 313 314 316 316 316 317 317 317 315 316 317 317 317 316 315
326 318 322 324 325 324 322 322 321 319 320 318 313 314 314 313 313 314 315 316 317 316 316 316 315 314 313 317 316 316 317 317
327 318 323 322 325 325 324 324 324 323 321 320 317 313 313 313 314 314 315 315 313 313 313 312 312 312 312 312 313 316 317 317
330 321 324 323 324 326 326 326 326 325 322 320 320 319 317 316 316 315 315 313 312 312 313 312 312 312 311 312 313 314 317 316
330 322 324 324 327 327 327 327 326 320 320 320 320 320 319 319 318 317 316 315 314 313 313 313 312 311 310 312 313 314 313 313
329 325 326 328 328 328 326 324 321 320 320 320 320 320 320 320 318 317 316 315 314 313 312 312 310 308 307 307 306 306 305 306
327 326 325 326 327 326 324 321 320 320 320 319 320 319 318 316 316 315 314 313 312 311 311 308 307 306 304 302 302 302 302 301
327 326 325 325 322 322 321 320 319 318 317 317 317 316 315 314 313 313 310 309 308 309 307 306 305 304 302 302 301 300 299 299
328 326 325 323 323 321 318 319 316 315 314 314 314 315 314 313 311 309 309 308 307 306 304 303 302 301 299 298 297 298 301 298
325 326 324 321 320 320 320 315 314 313 313 314 313 312 311 309 310 309 308 306 304 303 302 301 298 296 296 297 301 300 300 301
318 318 319 318 318 316 313 314 313 313 312 311 312 311 309 309 308 307 305 303 303 299 297 297 296 296 299 299 301 301 300 299
316 314 314 314 314 313 313 312 312 312 312 311 310 309 308 306 305 303 304 304 302 298 297 298 297 297 298 298 298 299 298 298
315 315 315 315 314 314 313 313 312 311 309 309 308 306 305 306 306 306 301 299 298 298 296 294 294 296 296 297 296 294 297 296
315 315 315 314 314 314 313 312 310 309 308 307 307 306 304 303 300 301 300 299 299 294 292 292 291 292 292 293 294 294 294 295
315 314 313 313 312 312 311 308 306 304 303 302 301 302 301 300 301 300 300 296 292 291 291 290 290 289 289 290 290 291 291 292
313 312 311 310 310 309 306 303 302 300 301 302 301 302 302 301 300 299 293 292 291 290 289 289 289 289 289 289 289 289 290 290

GFSFLT2_850_thetae_018.txt.gz
Theta_e
328 323 319 318 316 315 314 312 309 311 315 317 317 317 315 314 313 312 312 312 312 311 311 311 311 311 310 310 309 309 308 309
318 316 315 315 314 313 311 308 311 313 318 320 319 319 317 316 314 313 313 313 313 312 313 313 313 313 311 311 312 311 310 310
314 312 309 309 310 308 308 310 313 320 320 319 321 320 318 316 314 313 313 314 314 314 315 315 315 313 314 313 312 311 311 311
315 314 311 308 308 309 311 313 317 319 320 320 321 318 316 314 313 313 314 314 315 315 316 315 314 314 312 313 313 313 312 312
317 318 318 314 313 315 315 315 316 318 317 317 319 317 316 314 313 313 313 314 314 313 313 313 313 312 312 312 312 311 313 314
318 320 321 321 321 319 319 318 321 322 321 319 315 315 316 315 313 313 314 314 314 314 313 312 313 312 312 312 312 312 312 312
323 318 322 324 325 324 323 324 324 323 322 321 320 315 316 314 314 314 314 315 315 312 312 313 313 312 312 312 311 313 314 315
327 321 325 325 326 326 326 326 326 326 324 322 321 318 318 317 316 316 316 314 312 312 313 313 312 311 311 309 309 311 311 310
329 324 325 326 326 326 326 325 323 324 325 324 322 319 319 319 319 318 317 315 315 314 313 311 310 310 309 307 305 304 304 303
328 327 327 326 326 326 326 319 323 323 323 322 321 320 319 319 319 317 316 314 312 309 308 308 308 307 306 306 305 304 303 303
329 325 327 325 322 324 322 321 320 320 321 320 319 319 318 316 315 314 315 310 309 308 307 306 306 305 304 304 305 304 304 302
328 324 325 323 325 322 321 319 318 318 318 317 316 314 316 316 314 311 309 308 308 307 306 305 304 304 303 302 302 303 301 300
327 325 326 325 323 318 316 319 320 317 314 314 314 313 313 312 311 309 309 309 308 306 304 304 303 302 300 299 296 297 299 296
326 325 324 320 318 319 319 315 313 313 312 312 312 311 311 311 310 309 308 307 305 305 304 301 297 295 295 294 297 296 297 300
318 319 317 315 314 313 313 313 312 312 312 312 311 311 310 309 308 307 306 306 306 300 298 296 296 294 293 296 298 298 297 296
313 313 314 314 314 314 314 313 313 313 312 311 309 308 307 306 305 304 302 300 299 297 296 296 292 292 292 292 294 295 296 295
314 315 315 315 314 314 313 313 313 311 309 308 306 304 301 300 300 299 299 300 300 298 295 291 291 290 290 291 291 292 293 294
315 315 315 314 313 312 312 311 309 307 303 301 300 300 299 299 301 301 300 297 294 292 291 290 289 288 288 289 289 291 290 291
315 314 313 311 310 309 308 305 302 300 299 301 301 300 300 300 300 300 300 297 293 292 291 289 288 288 288 288 288 288 288 288
313 311 308 306 304 301 299 299 300 301 303 303 302 298 300 301 300 300 299 296 294 294 291 289 288 288 288 288 288 288 288 288

GFSFLT2_850_thetae_021.txt.gz
Theta_e
335 333 328 322 319 317 315 311 311 312 316 317 317 315 314 313 313 312 312 311 311 311 311 311 311 310 310 310 310 310 311 310
332 326 323 320 318 316 313 310 313 317 318 318 316 315 315 313 312 312 312 312 312 312 312 312 312 312 312 312 312 311 310 310
323 319 317 317 316 314 311 311 314 319 319 319 318 318 315 314 313 313 312 313 313 313 314 314 313 313 312 312 312 312 312 312
316 314 314 313 312 310 310 313 320 321 320 321 321 319 316 314 313 314 314 314 314 314 314 314 313 312 312 312 312 312 312 311
313 311 309 309 310 311 312 318 322 322 321 321 321 320 318 316 314 314 315 315 315 315 313 312 313 313 313 311 311 312 311 311
317 317 311 311 314 318 320 324 324 323 321 320 321 321 319 317 314 314 315 315 315 314 312 312 313 313 312 311 309 310 310 311
321 322 320 320 322 323 325 324 325 326 325 324 321 318 319 316 315 315 315 315 315 313 312 312 313 312 311 310 309 308 308 308
323 323 324 324 325 325 325 325 324 325 326 324 322 320 319 318 317 317 317 317 317 314 314 312 310 309 309 308 307 306 305 304
326 325 324 325 325 325 325 320 318 318 324 323 321 320 319 319 319 319 318 317 315 312 311 309 308 307 307 307 307 306 306 304
327 326 326 326 326 323 321 322 321 320 323 322 321 320 319 319 318 316 314 314 312 310 309 308 307 306 306 306 306 306 306 305
328 328 327 326 321 319 321 323 322 320 320 319 319 317 316 315 314 314 313 310 308 309 307 306 305 305 305 305 305 305 305 305
328 327 326 325 320 324 322 320 317 318 319 317 315 314 315 314 313 311 310 308 308 307 306 305 305 304 300 299 298 297 296 298
327 327 325 323 323 321 318 318 319 315 314 314 313 312 311 311 310 309 307 306 306 306 306 305 301 297 296 298 297 295 300 299
327 325 323 321 319 318 318 314 313 312 312 312 312 311 311 309 307 306 306 305 303 301 298 297 296 295 293 296 297 297 299 299
325 321 318 318 317 313 313 313 312 312 312 312 311 309 308 307 305 301 300 299 299 300 299 298 295 293 291 295 296 296 296 295
316 314 314 314 313 313 313 313 313 313 312 310 308 307 304 300 298 296 298 300 300 299 299 295 292 291 290 293 293 294 293 294
313 314 314 314 314 313 313 313 312 310 308 305 302 300 298 298 298 297 296 297 300 299 297 291 290 289 290 291 292 292 292 293
314 315 315 314 313 312 310 309 306 302 300 299 299 298 298 297 299 301 299 299 298 297 294 293 291 289 289 290 290 290 290 290
315 314 313 312 309 305 301 298 297 297 297 297 298 299 297 296 296 300 300 297 297 296 295 292 289 288 288 289 288 289 289 289
314 312 309 305 303 300 299 299 298 299 299 299 296 294 294 294 295 299 299 297 296 295 293 290 289 288 288 288 288 289 288 288

GFSFLT2_850_thetae_024.txt.gz
Theta_e
335 334 331 328 323 320 316 312 312 311 312 317 318 315 314 314 313 312 312 311 312 312 312 312 313 313 312 313 313 313 317 316
335 333 330 328 323 319 315 311 313 316 319 319 317 316 314 314 314 313 313 313 313 313 313 313 313 313 313 312 312 317 317 317
333 332 331 332 330 319 314 312 317 319 320 320 319 325 323 322 314 313 313 313 314 314 314 313 313 316 316 314 316 316 316 316
329 329 328 327 324 316 312 314 324 327 326 323 326 322 323 317 313 313 314 315 315 315 314 313 316 317 317 316 316 315 315 315
327 326 320 319 323 323 323 324 327 325 324 324 324 323 321 323 322 318 315 315 319 318 317 316 314 314 315 314 313 313 313 313
327 316 313 313 320 322 320 328 327 326 324 322 322 325 322 324 320 316 315 316 316 315 316 314 313 314 313 311 310 310 310 310
321 315 311 312 316 319 323 323 325 326 326 325 324 324 320 319 316 317 316 316 316 316 315 315 314 312 311 310 309 309 308 308
320 320 317 320 322 324 325 324 323 322 321 321 322 320 320 320 318 317 318 318 317 315 315 313 312 311 310 309 308 308 308 307
324 322 321 323 324 325 321 320 318 318 320 320 322 320 320 320 319 319 319 318 316 313 312 310 310 309 309 308 308 308 308 307
325 324 324 323 325 323 319 319 319 321 322 321 321 320 319 319 319 315 314 313 312 309 309 309 308 308 308 307 307 307 307 306
326 327 325 324 325 323 319 320 322 322 320 319 319 318 316 314 314 313 311 309 309 308 308 308 308 308 307 305 304 304 303 301
327 328 327 326 321 321 321 322 319 319 319 318 316 314 314 312 311 310 309 308 308 308 307 307 306 305 304 301 301 300 301 302
327 327 326 323 322 323 321 318 318 317 316 314 313 313 312 310 309 308 308 307 307 305 304 303 302 302 301 300 300 300 302 303
327 327 326 324 321 319 318 318 316 313 313 313 312 311 310 309 308 306 306 303 304 303 302 301 300 300 300 299 299 299 299 301
328 327 324 319 318 319 317 314 313 313 312 311 311 309 307 306 305 302 299 300 300 301 300 300 299 297 297 297 298 298 297 296
323 320 318 317 317 315 316 315 315 312 311 309 307 306 303 301 299 298 300 300 301 300 298 298 297 297 296 296 295 295 295 295
318 316 315 314 313 314 313 312 311 309 307 305 305 304 303 303 302 301 301 301 300 299 298 297 296 296 295 294 294 293 293 293
314 314 313 313 313 312 310 306 304 304 304 303 302 302 303 303 302 301 300 300 299 298 298 296 296 295 293 293 293 292 292 292
314 313 313 312 309 305 302 302 302 303 302 302 302 300 299 299 298 298 299 299 298 298 297 296 296 294 293 293 293 292 291 291
313 313 310 307 303 304 304 300 302 302 301 299 298 297 296 296 296 297 298 298 299 297 296 296 295 294 293 293 292 291 291 290

GFSFLT2_850_thetae_027.txt.gz
Theta_e
335 334 332 329 324 320 317 312 313 311 310 317 317 314 314 312 312 311 311 312 312 313 313 313 313 313 314 314 316 317 319 319
334 333 329 326 324 320 315 312 312 312 318 319 316 315 315 315 314 312 312 313 314 314 314 313 315 318 317 315 317 317 318 318
333 331 332 330 325 319 314 313 317 318 320 319 322 327 326 325 315 314 313 314 314 314 314 313 318 319 318 317 317 317 317 317
331 332 331 331 329 322 318 316 322 327 328 326 328 327 328 324 317 313 314 314 315 315 316 318 319 319 318 317 317 316 315 315
328 328 330 328 327 324 323 325 327 329 329 328 327 328 328 327 325 322 322 320 322 321 321 319 319 318 317 316 315 314 314 313
332 330 328 326 323 323 324 327 328 327 325 322 327 327 328 327 324 322 322 321 320 320 320 319 318 317 315 315 314 313 312 312
328 327 325 324 324 325 328 328 327 328 327 324 324 324 323 324 324 322 321 320 320 320 319 318 316 315 314 313 312 312 311 311
327 325 324 325 328 328 328 327 323 323 322 320 320 322 320 321 320 320 320 320 320 318 317 315 314 313 312 311 311 311 310 310
327 327 328 329 328 325 320 318 318 318 319 321 320 321 320 319 319 319 320 318 314 313 312 312 312 312 311 310 310 309 308 308
329 328 329 329 325 323 321 318 317 318 319 322 322 321 320 320 319 319 315 313 312 312 311 311 311 311 310 310 308 305 304 306
330 327 326 325 325 324 319 320 320 320 322 320 319 319 319 317 314 314 312 312 311 312 312 311 311 310 307 306 305 302 303 302
331 329 325 324 324 322 320 320 321 321 319 318 317 316 314 313 313 311 311 312 311 311 310 308 307 305 303 303 303 302 301 303
332 330 327 326 325 324 323 321 319 318 317 315 314 313 312 311 312 312 311 310 308 308 306 304 303 302 302 302 301 300 301 301
329 330 327 327 325 325 323 321 319 316 314 313 313 312 311 310 310 309 307 306 304 303 304 303 302 301 300 300 299 299 300 300
328 328 328 326 323 321 321 320 316 315 314 314 312 311 309 308 307 306 304 303 303 302 302 302 301 300 300 299 298 298 297 297
328 327 325 322 320 319 319 318 317 317 315 313 311 309 307 305 304 304 304 303 303 302 301 300 300 299 299 299 298 297 296 296
326 323 321 320 318 318 318 317 315 313 310 308 306 306 305 305 305 304 304 303 302 301 300 300 299 298 298 297 295 295 295 294
321 319 318 317 317 316 315 312 308 307 306 305 305 304 303 302 301 301 300 300 301 300 300 299 298 298 297 295 295 294 294 293
318 317 316 315 313 311 308 306 308 309 305 304 302 301 300 299 298 298 298 298 299 300 299 298 297 297 296 296 295 294 294 293
316 316 315 313 309 307 308 306 305 304 303 301 300 299 298 298 297 297 297 298 298 299 299 298 297 297 296 296 295 294 294 293

GFSFLT2_850_thetae_030.txt.gz
Theta_e
333 333 332 330 327 320 316 313 312 310 310 316 314 312 312 312 311 311 312 312 313 313 313 313 317 318 318 316 317 317 318 318
326 333 331 328 322 318 314 312 311 311 317 315 314 315 314 313 313 312 312 313 314 314 313 314 319 319 318 317 317 316 316 316
332 331 327 324 319 316 312 312 312 318 317 324 327 326 327 326 317 313 313 314 314 314 315 319 320 319 319 318 317 316 315 315
327 328 327 326 319 315 314 318 321 323 319 329 327 328 327 323 322 319 317 317 321 321 321 320 320 318 318 317 316 314 314 314
329 328 330 329 320 316 323 326 328 329 327 328 327 323 327 327 327 323 321 322 322 321 321 320 319 318 316 315 314 314 313 312
330 329 328 325 321 323 325 328 329 325 323 323 322 326 324 327 323 322 323 321 321 321 320 319 318 316 315 314 313 312 311 311
329 324 327 322 324 324 328 326 325 324 326 323 325 325 325 321 321 320 322 320 320 320 319 318 317 315 314 313 312 311 310 310
327 324 324 324 325 328 327 324 323 324 324 321 320 320 320 320 323 319 319 318 318 318 314 313 312 312 312 311 311 310 309 308
325 323 325 327 326 325 322 320 318 319 319 318 319 320 320 320 319 318 318 319 318 314 312 311 312 312 311 310 309 309 309 305
326 327 328 327 325 321 318 317 317 319 320 321 322 321 321 320 317 317 318 315 313 311 312 312 311 311 310 307 305 305 305 303
328 329 329 326 323 321 319 318 318 318 320 321 319 319 319 318 317 315 312 311 312 312 312 310 308 305 303 303 303 303 303 301
328 329 327 327 324 323 322 321 320 319 321 319 318 317 316 314 313 312 312 312 311 310 308 305 304 302 302 301 302 301 300 301
330 328 326 325 324 324 324 322 320 321 318 317 315 314 313 312 312 312 310 310 308 305 303 303 302 302 301 301 300 299 300 299
330 328 328 325 326 325 323 322 320 318 317 314 313 312 312 311 311 310 308 305 302 302 302 302 303 302 300 300 300 299 299 298
329 328 327 326 326 324 323 321 319 317 314 314 313 312 310 309 307 305 303 303 303 303 302 302 301 301 299 300 299 299 298 297
329 328 327 325 324 322 321 320 317 316 316 314 312 310 307 306 305 305 305 305 302 302 303 302 301 300 300 299 298 297 296 296
330 328 325 324 321 321 319 318 317 316 313 312 308 306 306 305 305 304 304 304 301 301 301 301 300 300 299 298 297 296 295 295
327 325 323 322 320 319 319 317 314 311 308 309 307 305 304 303 302 301 299 296 298 299 300 300 300 299 298 297 296 296 295 294
324 322 320 319 318 318 316 315 311 308 310 306 305 304 301 300 299 297 296 295 297 298 299 300 300 297 298 297 296 296 295 294
321 319 318 317 315 312 310 309 309 307 305 305 303 301 300 298 298 297 295 296 296 297 298 298 298 298 297 296 295 296 295 294

GFSFLT2_850_thetae_033.txt.gz
Theta_e
333 328 325 329 322 317 313 310 309 309 314 312 311 311 311 311 311 312 312 313 313 313 314 319 319 318 318 317 316 316 316 316
327 322 324 328 320 315 311 310 309 313 313 313 314 313 312 313 311 312 313 313 314 314 317 319 320 319 318 318 317 315 315 314
325 326 330 325 318 313 311 310 312 315 316 323 320 323 324 318 314 312 313 314 316 320 320 320 319 318 318 317 316 315 314 314
327 328 326 320 316 312 311 312 317 318 325 326 325 327 325 322 323 321 320 321 322 321 321 320 319 318 316 315 314 314 313 312
327 327 325 319 314 311 314 321 321 322 326 327 325 327 325 326 325 322 322 322 321 321 320 319 319 317 316 315 314 312 311 310
327 330 328 321 313 316 322 325 325 327 325 328 329 325 325 323 323 323 321 321 321 321 320 320 319 318 315 313 312 311 310 310
330 329 324 318 322 326 328 326 326 324 323 326 324 325 326 324 323 322 322 321 320 319 320 320 315 312 311 311 311 311 310 309
329 327 322 323 325 325 328 325 326 323 326 323 324 322 321 320 320 321 319 319 319 317 318 316 312 310 310 310 309 308 308 309
325 326 322 324 325 328 327 326 324 325 321 319 319 319 319 319 320 319 318 318 319 318 315 311 310 310 309 308 306 305 305 304
317 321 325 324 323 327 326 323 322 319 317 319 321 321 321 320 320 317 317 315 312 310 310 311 311 308 304 301 302 302 301 299
321 321 324 323 323 323 321 318 317 317 318 320 320 320 320 320 317 315 314 311 310 311 311 310 304 303 301 300 300 301 301 299
322 324 325 326 323 320 318 319 319 320 319 321 319 318 316 314 313 313 311 311 311 310 306 302 301 300 300 300 299 298 298 299
325 325 327 325 322 320 320 323 320 320 320 320 317 314 313 313 312 312 311 310 307 303 301 301 300 300 300 299 297 299 298 299
328 326 327 327 322 322 323 323 321 320 319 317 314 313 312 312 311 311 308 304 301 301 300 299 300 301 300 299 299 298 298 298
330 329 325 326 325 324 325 321 319 318 317 313 313 312 312 310 308 305 304 304 303 302 300 299 301 301 301 299 299 298 298 296
330 329 327 326 325 326 323 321 319 318 315 315 313 312 308 307 307 306 304 304 303 302 300 299 299 300 300 299 298 298 297 296
329 328 327 325 324 323 322 320 319 317 316 314 313 308 306 307 306 305 304 303 302 299 295 298 300 300 300 300 298 297 296 296
328 328 325 324 324 323 321 320 319 316 314 313 308 306 306 305 304 304 303 301 296 293 294 296 299 300 299 298 297 297 297 296
328 328 325 324 321 321 320 319 317 316 314 309 308 307 305 304 303 301 298 295 294 293 295 297 298 298 297 298 297 297 296 296
327 325 324 322 321 319 319 316 314 313 309 309 309 308 305 300 299 296 296 296 294 293 293 295 296 298 298 297 296 296 295 296

GFSFLT2_850_thetae_036.txt.gz
Theta_e
333 331 326 322 317 314 310 309 309 312 311 310 310 311 312 312 312 313 313 314 314 316 318 318 317 317 317 316 316 315 314 314
326 324 322 322 318 313 311 309 310 313 311 311 311 311 311 312 312 313 313 314 315 318 319 319 318 318 317 316 316 314 314 313
325 322 322 323 316 312 310 309 314 313 313 312 314 315 313 312 312 313 314 317 320 320 320 320 320 319 317 315 314 314 313 311
323 322 324 321 315 312 310 314 314 315 318 319 324 324 322 322 319 320 321 321 321 320 320 319 319 319 317 315 314 313 311 310
324 328 326 320 313 311 311 316 322 325 325 325 326 323 324 325 322 321 322 321 321 320 320 319 318 317 316 314 313 311 310 309
326 326 324 317 312 312 317 317 321 327 328 327 326 326 324 325 323 322 322 321 321 320 320 319 318 315 312 311 310 310 310 310
326 326 321 314 314 319 323 322 324 323 327 328 327 325 324 323 322 322 321 321 320 320 320 320 319 316 310 309 309 310 308 308
328 327 320 315 324 326 325 325 324 326 326 326 324 325 325 324 322 322 321 321 319 318 318 317 314 310 310 308 306 305 306 306
329 324 320 320 327 326 326 326 327 326 324 321 321 321 320 320 320 321 321 318 317 318 315 311 310 309 309 305 300 301 303 301
328 325 322 323 323 324 328 329 326 325 322 318 318 319 319 320 320 320 317 316 314 311 310 309 308 309 302 299 299 300 300 299
328 326 323 324 327 328 328 327 325 324 318 318 319 321 320 320 319 318 316 313 311 310 310 309 305 300 300 300 300 300 298 299
324 325 323 325 326 326 326 324 320 317 320 320 320 320 320 319 318 314 312 311 311 309 306 301 300 300 300 300 299 297 299 299
317 319 322 324 324 324 324 320 318 321 320 320 319 318 317 313 312 312 311 311 308 303 301 301 298 298 299 300 298 299 298 298
321 317 320 324 325 323 320 318 320 321 320 319 317 314 312 312 312 311 310 307 304 302 301 299 297 298 299 299 298 297 298 296
327 325 324 326 326 323 320 320 323 321 319 318 316 313 312 312 310 309 309 309 303 302 302 300 298 298 299 299 298 298 298 297
329 328 327 327 326 323 321 323 323 321 319 318 314 312 312 311 310 310 309 306 304 303 301 298 295 298 299 300 300 299 298 297
330 328 328 326 326 325 323 325 322 319 318 315 313 313 312 311 310 308 306 304 303 302 299 293 293 295 299 300 299 298 297 297
329 329 328 327 326 325 324 323 321 319 317 315 314 311 309 307 306 305 304 303 300 297 294 293 293 296 298 298 298 297 297 297
330 329 327 327 325 324 323 322 321 319 317 315 313 310 307 306 307 305 300 300 296 294 293 292 293 295 296 297 297 297 296 296
329 327 327 325 324 324 323 323 321 319 317 314 309 307 307 304 302 302 298 296 295 294 293 293 294 294 295 296 296 295 295 294

GFSFLT2_850_thetae_039.txt.gz
Theta_e
329 329 320 314 312 309 308 309 309 312 310 310 311 311 312 313 313 313 314 315 316 317 317 317 318 317 315 315 315 313 313 312
328 320 316 312 311 309 309 309 311 311 310 310 311 311 312 312 313 313 314 314 315 317 318 319 319 318 316 314 313 312 311 310
322 320 318 319 319 316 311 309 313 311 311 311 311 311 312 313 313 313 314 315 318 319 319 318 319 318 317 315 313 312 311 309
323 324 323 322 316 311 309 314 312 311 313 314 316 313 313 312 314 315 317 319 319 319 319 319 319 318 317 315 313 311 310 309
323 321 320 318 314 311 311 314 318 318 324 324 322 322 321 319 319 320 320 320 320 320 319 319 318 318 316 312 310 310 310 309
319 321 325 318 313 311 315 315 322 325 326 326 324 323 324 322 321 321 321 321 321 320 320 319 318 315 313 310 309 308 308 308
323 327 324 317 313 312 317 326 327 327 326 325 323 323 323 324 323 322 321 321 320 320 319 318 316 313 310 309 308 305 302 302
324 325 323 316 313 314 318 322 325 327 327 326 326 323 323 323 323 322 321 320 320 319 318 316 313 310 309 309 305 300 299 300
324 325 321 315 315 319 319 322 325 324 324 324 323 322 323 324 323 321 321 320 319 318 316 311 310 309 308 305 299 298 298 298
327 325 320 314 321 325 326 326 325 326 324 321 321 322 322 323 321 321 321 319 317 314 310 310 308 305 300 299 298 299 299 298
327 325 320 316 324 327 327 327 326 326 320 318 318 319 319 320 320 320 319 316 313 311 310 308 302 300 298 298 299 298 298 297
326 325 321 322 323 323 324 328 328 326 322 318 319 320 320 320 320 319 316 312 311 310 306 302 300 297 297 297 297 297 298 299
327 327 324 323 323 325 326 328 327 323 318 321 320 320 320 319 319 315 312 311 309 306 303 301 299 298 296 296 296 297 298 298
327 325 325 323 323 325 327 327 323 319 320 320 319 319 318 317 313 311 311 309 308 305 303 301 299 297 295 295 297 298 298 297
326 320 321 322 322 326 326 324 320 320 320 320 319 317 315 312 311 311 308 308 307 306 303 301 300 296 295 296 298 298 298 297
327 322 319 319 323 325 325 324 320 319 321 321 318 316 313 312 311 308 308 309 307 308 304 301 297 294 294 296 299 300 299 297
327 323 320 320 322 325 326 324 320 322 322 320 317 315 313 312 310 309 307 305 306 301 300 296 293 293 294 297 298 298 297 297
327 326 324 324 326 327 326 322 321 322 323 319 317 314 312 311 308 307 305 304 306 301 296 294 293 293 294 296 297 297 297 297
327 327 326 327 328 327 327 325 322 323 321 319 317 314 313 310 307 305 303 305 303 296 295 294 292 293 294 294 295 295 294 294
327 327 327 328 328 327 326 326 324 323 321 319 317 315 312 308 306 306 303 304 297 297 296 295 293 293 294 295 294 294 292 291

GFSFLT2_850_thetae_042.txt.gz
Theta_e
331 329 324 312 309 308 308 310 312 310 310 310 312 312 313 313 314 316 316 317 317 317 317 317 317 315 313 312 312 311 310 308
330 328 318 312 309 309 309 312 311 310 310 311 312 313 313 313 313 314 315 316 317 318 318 318 318 317 316 314 311 310 309 307
326 317 311 311 309 313 315 312 311 310 310 311 312 312 313 313 313 314 315 315 317 319 319 318 318 318 317 315 312 309 308 307
320 313 313 316 317 318 312 312 310 310 311 311 312 312 313 313 313 315 316 317 319 319 319 318 318 318 317 315 311 309 308 307
319 317 320 321 320 311 312 312 311 311 311 312 311 312 312 313 314 316 318 319 319 319 319 319 319 318 316 313 310 308 307 306
321 321 322 319 314 310 310 312 312 315 316 318 317 318 316 318 319 320 320 321 320 320 320 319 318 317 315 311 309 307 304 301
321 321 319 316 313 310 314 315 317 322 324 324 323 323 322 321 321 321 321 321 320 320 319 319 318 315 311 309 307 304 300 300
320 323 320 316 312 310 316 315 322 325 325 325 323 322 323 324 323 322 321 321 320 319 319 317 315 310 309 307 303 300 299 298
323 326 323 317 313 311 317 323 326 326 325 324 324 323 322 323 323 322 321 320 319 318 317 313 310 309 307 301 299 298 298 298
324 326 324 318 313 312 318 321 323 323 323 323 323 323 323 323 323 322 321 320 319 317 313 310 309 306 301 299 297 297 297 297
323 323 322 318 314 314 318 319 323 324 324 323 322 321 321 323 323 321 320 320 316 312 310 309 306 301 299 297 297 296 297 298
325 325 323 319 314 318 323 325 325 326 324 320 318 318 319 320 320 320 319 316 312 310 309 306 302 299 297 296 296 297 298 298
323 325 324 319 315 322 326 327 326 326 324 321 319 319 320 320 320 319 316 312 311 309 307 303 301 299 297 296 297 297 298 298
321 321 325 320 320 323 324 323 325 326 324 323 319 320 320 320 318 317 312 311 309 307 305 302 300 298 295 295 296 297 298 298
322 323 325 324 321 322 323 326 327 326 325 320 319 319 319 318 316 313 311 310 307 306 304 301 298 297 295 294 296 297 298 297
326 325 325 325 324 323 322 324 326 326 324 320 319 318 317 315 313 311 310 307 306 305 303 303 303 298 294 293 295 298 299 297
327 327 327 324 324 324 323 325 326 324 322 319 319 317 315 313 312 311 307 306 305 306 307 304 306 295 293 293 294 295 296 297
328 328 327 326 324 323 323 325 325 324 321 320 319 317 315 313 311 310 307 306 305 307 311 306 295 294 293 293 294 295 295 295
328 328 328 327 324 322 321 322 325 322 321 321 320 318 316 314 312 310 307 305 306 310 308 299 298 295 292 293 294 294 294 293
328 329 329 328 326 323 323 323 326 323 321 323 321 318 317 314 311 307 305 307 311 307 305 298 296 295 295 293 294 294 293 293

GFSFLT2_850_thetae_048.txt.gz
Theta_e
330 326 319 318 313 318 311 310 310 310 310 311 315 315 313 313 314 315 315 315 316 316 316 315 315 315 313 311 309 308 313 314
329 326 319 316 314 315 314 311 310 309 310 312 313 313 314 315 316 316 316 317 318 318 318 318 317 316 315 312 309 310 312 313
328 326 318 314 313 313 314 310 309 311 313 314 315 317 316 319 318 317 317 318 318 318 318 318 318 317 316 313 311 312 311 311
326 322 319 316 315 315 314 312 312 313 314 316 320 321 321 319 317 317 318 318 319 318 318 318 317 315 315 312 311 310 309 308
319 318 316 314 315 314 312 312 311 312 315 319 319 318 316 316 316 318 318 319 318 319 319 317 318 316 316 311 309 308 307 306
319 319 318 314 313 314 312 314 315 312 312 313 313 313 314 317 321 320 319 319 319 319 319 319 318 318 315 310 309 306 304 304
316 313 313 314 314 314 316 315 312 315 312 312 314 315 313 314 317 319 319 320 320 320 319 318 319 317 312 309 307 303 301 301
314 316 314 313 313 314 314 313 312 311 312 312 312 312 313 314 317 320 320 320 320 319 318 319 318 315 310 308 303 301 300 299
317 318 315 315 314 312 314 311 311 313 316 312 313 315 317 320 320 321 321 321 320 319 319 318 316 310 309 305 302 300 300 300
322 321 320 320 315 311 317 317 314 317 320 320 322 323 323 323 323 323 323 321 320 319 319 316 312 309 307 304 302 301 299 300
322 323 322 315 314 311 314 316 316 324 322 323 324 323 322 322 323 322 322 321 320 319 318 314 310 307 305 304 306 302 300 300
323 323 323 321 318 314 315 320 322 324 324 323 322 323 323 322 322 321 322 321 320 318 315 311 308 306 304 304 305 301 300 301
324 325 325 326 325 321 318 320 323 325 324 321 323 323 322 321 320 320 321 321 318 317 313 310 307 307 306 306 305 301 300 301
324 325 326 326 327 323 320 319 322 324 324 323 324 323 321 319 319 320 320 318 318 316 312 309 308 309 307 306 307 305 302 302
325 325 326 328 327 325 322 321 323 324 324 324 324 323 322 321 320 320 320 319 318 314 311 308 308 308 309 307 306 308 304 303
326 326 327 328 327 327 324 321 323 324 325 325 324 324 323 322 320 320 320 318 315 313 310 307 308 307 307 306 303 302 303 304
326 325 326 327 327 327 326 323 322 325 326 324 324 324 324 322 320 319 318 317 315 312 311 307 307 309 308 304 302 303 302 300
329 327 327 327 327 325 327 327 325 325 324 322 323 324 324 322 319 318 317 315 314 312 309 307 308 310 310 302 302 302 300 300
328 326 327 326 325 324 323 324 326 326 324 323 323 324 324 321 319 318 316 314 313 311 308 306 308 309 305 302 300 299 299 298
331 328 326 326 324 325 326 326 326 326 325 324 324 324 324 322 320 318 316 314 313 310 307 306 307 302 300 297 299 299 299 298

GFSFLT2_850_thetae_051.txt.gz
Theta_e
329 328 325 321 314 310 308 309 311 312 311 313 317 315 315 316 316 316 316 315 316 315 315 316 315 313 310 309 310 314 316 316
328 326 323 321 321 314 318 319 315 311 313 316 316 314 315 315 315 315 315 317 317 317 318 317 316 314 312 310 313 314 314 314
329 327 325 319 317 315 317 315 311 311 317 317 315 314 315 318 315 316 317 318 318 318 318 318 317 315 312 311 313 313 312 313
326 327 324 314 311 315 313 317 315 314 315 315 318 318 323 319 316 317 318 319 318 319 319 318 318 316 314 313 312 311 310 309
327 323 317 315 317 315 314 317 316 315 316 316 316 322 323 318 317 318 318 319 318 319 319 319 318 317 315 311 311 310 308 308
321 319 316 315 316 315 314 316 315 316 315 317 321 322 320 319 321 321 320 320 319 319 320 320 319 318 313 310 309 307 306 307
319 317 318 319 319 317 317 319 315 316 318 321 317 320 323 323 324 323 322 322 321 321 320 319 319 317 312 310 309 307 306 306
317 318 318 318 315 315 313 314 315 317 318 315 316 322 322 323 324 323 323 322 322 320 319 318 317 315 311 310 308 306 306 304
318 317 315 315 312 312 313 313 317 319 314 315 322 322 318 322 323 324 323 323 321 320 319 317 316 313 310 309 307 308 306 306
317 316 314 314 315 314 315 319 315 313 319 321 322 322 323 324 324 324 323 322 321 319 318 318 316 313 310 308 307 307 306 305
319 318 316 317 319 318 320 319 317 317 321 324 325 325 324 325 325 324 322 322 320 319 318 318 315 311 310 308 309 307 306 304
322 321 319 321 321 317 321 321 320 321 324 325 325 326 325 323 325 324 322 321 320 319 318 316 314 312 308 307 309 308 305 305
325 325 324 324 324 322 319 321 322 323 324 326 325 326 322 323 325 323 321 321 320 319 317 315 312 310 310 311 310 309 308 306
326 325 325 325 325 324 321 319 321 322 324 326 326 325 325 323 324 322 320 321 320 318 317 314 313 311 311 311 312 311 307 306
326 327 328 327 327 326 323 321 321 322 324 326 326 325 325 323 322 322 321 320 319 318 317 314 313 311 309 311 312 312 310 308
327 327 326 327 327 327 325 323 321 323 324 325 327 323 323 324 321 321 320 320 319 318 316 314 313 312 310 309 309 309 307 308
327 327 326 326 328 327 328 325 323 324 325 326 326 325 324 324 322 321 321 320 319 317 315 314 311 311 311 309 309 307 307 306
327 327 327 327 328 328 328 327 325 323 325 326 326 326 324 323 323 323 321 319 319 317 315 313 311 310 309 309 308 307 307 305
330 329 327 327 328 329 329 329 328 326 325 328 326 325 323 322 323 323 322 320 318 315 313 311 310 308 308 308 305 304 302 302
332 331 330 328 329 329 330 330 330 329 328 327 327 326 325 322 323 324 322 320 318 314 311 312 309 306 307 305 304 301 301 301

GFSFLT2_850_thetae_054.txt.gz
Theta_e
333 336 336 334 332 325 315 309 308 310 312 314 317 319 319 319 318 316 316 315 315 316 316 313 311 309 310 314 315 316 316 316
330 328 328 327 326 320 317 318 313 312 314 318 317 318 319 318 317 316 315 316 317 318 317 315 312 310 312 314 314 314 314 314
330 326 326 326 324 317 315 318 314 314 318 318 318 318 318 317 316 316 317 318 318 318 318 317 314 311 311 313 313 312 312 312
328 326 325 325 323 319 313 319 319 319 318 317 316 317 317 316 315 317 318 318 318 319 318 318 317 316 313 312 311 310 309 309
326 325 324 321 318 314 317 316 316 318 317 316 319 318 319 316 317 317 318 318 318 319 319 319 318 317 312 310 310 309 308 308
327 323 321 319 317 315 314 316 317 320 320 320 319 315 322 316 317 317 318 319 318 320 320 319 319 318 311 311 309 308 307 307
323 322 319 316 314 317 316 315 315 317 319 316 316 322 321 317 318 318 319 320 320 321 320 319 319 318 311 310 309 307 307 308
319 318 315 317 317 315 315 317 319 316 316 317 320 321 322 322 323 323 322 322 321 321 320 319 318 317 313 310 308 308 309 308
318 316 316 318 316 318 317 317 317 315 315 318 320 321 322 323 324 323 323 323 322 321 320 319 318 315 312 310 311 311 312 308
318 318 319 319 318 318 317 315 314 314 315 315 317 322 322 321 322 324 324 323 323 321 320 319 317 314 311 309 308 310 310 308
318 318 318 317 315 314 312 313 314 316 312 316 312 315 322 321 324 324 324 323 322 321 320 318 317 315 312 310 309 308 308 306
315 314 314 314 313 313 313 313 314 312 313 319 321 320 320 322 324 324 323 323 322 320 319 319 318 315 312 309 309 310 310 307
317 316 315 318 317 314 318 321 320 317 319 320 324 322 321 321 322 325 323 323 321 321 320 318 318 314 312 309 311 311 311 309
320 318 316 318 319 319 317 321 321 318 320 325 323 323 322 323 323 323 323 322 322 321 320 319 318 314 313 311 312 312 311 311
323 322 322 321 321 323 322 320 319 321 322 324 323 326 324 324 322 324 323 321 321 320 320 319 317 313 313 312 312 313 310 310
326 325 325 325 322 325 325 322 320 321 321 323 324 325 324 324 324 324 324 322 321 320 320 319 316 313 313 312 310 311 310 309
326 326 326 325 326 324 326 324 322 321 322 323 325 326 324 323 325 324 323 322 321 320 319 319 318 316 313 312 311 309 309 307
326 327 327 326 328 326 327 327 325 323 322 324 325 325 326 324 324 324 323 323 322 320 319 317 317 313 313 311 310 309 309 307
327 327 327 327 327 327 328 327 328 326 324 324 325 325 325 324 324 322 323 323 323 321 319 316 315 314 310 311 310 307 306 306
328 327 328 328 327 327 328 326 327 327 326 324 327 327 327 325 324 323 321 322 321 319 317 315 314 312 311 310 307 307 306 306

GFSFLT2_850_thetae_057.txt.gz
Theta_e
335 335 335 336 334 333 328 313 309 309 311 317 323 324 321 318 315 315 314 314 315 313 310 309 310 315 316 316 316 315 314 313
335 334 333 334 330 323 319 317 309 310 312 318 321 322 319 318 316 315 315 317 317 315 312 310 310 313 315 314 314 314 314 313
334 334 334 331 329 326 317 311 312 313 317 320 321 321 320 319 316 316 316 318 318 317 313 311 310 312 313 313 312 312 311 310
333 331 332 330 326 324 314 311 316 318 320 320 321 320 318 318 316 316 318 318 318 317 317 316 315 312 311 311 311 310 309 308
330 329 328 328 324 322 315 310 313 320 321 321 318 315 317 316 316 317 318 318 319 318 318 318 317 315 310 310 310 309 308 308
327 327 325 326 322 316 316 313 318 318 318 317 314 315 315 316 317 318 318 318 319 319 319 319 318 317 310 311 309 308 308 308
325 325 324 320 316 314 315 318 319 318 318 316 315 317 317 316 317 317 318 318 319 320 320 319 319 318 311 312 309 308 309 308
325 323 322 320 317 315 318 321 321 319 315 318 316 316 319 317 317 318 319 320 321 321 320 320 319 318 316 310 310 308 311 309
322 322 320 316 316 315 315 315 316 315 318 316 315 320 320 322 323 323 322 322 322 321 321 319 318 318 316 313 310 310 309 311
320 318 318 316 314 314 315 314 316 314 316 317 319 321 321 323 323 324 323 322 322 322 321 320 318 318 315 313 310 310 310 309
318 315 316 315 317 316 316 316 317 317 316 315 317 318 318 322 322 322 323 323 323 322 322 320 319 317 314 312 312 310 310 311
317 316 318 317 317 316 315 317 316 314 314 315 315 314 317 319 320 322 324 323 323 323 321 320 319 317 315 313 311 309 308 310
318 319 319 318 318 317 314 314 313 314 315 313 312 313 314 315 318 322 324 323 322 322 321 320 319 318 315 313 309 308 310 311
316 316 316 317 316 314 314 314 314 315 314 311 317 319 321 320 317 321 322 322 323 322 320 320 320 319 316 313 311 311 311 311
315 315 315 315 313 313 314 316 314 316 313 316 321 320 322 322 321 321 321 322 323 322 320 320 320 319 318 316 312 312 312 312
316 316 316 316 315 314 314 314 319 320 318 316 319 323 322 321 322 322 322 322 323 322 321 320 320 319 317 315 313 313 312 310
322 319 317 318 319 320 320 321 321 319 319 320 320 322 324 323 324 323 322 323 323 323 321 321 320 318 315 314 312 312 310 310
325 324 322 322 322 321 324 326 324 322 320 321 321 321 324 324 324 324 322 324 324 323 322 321 320 318 316 314 313 312 310 311
326 325 325 325 324 324 323 323 326 325 322 321 321 322 323 325 325 325 324 323 323 323 322 321 319 317 317 316 314 311 311 311
327 326 325 326 326 325 327 324 325 326 326 324 322 323 323 324 324 325 324 322 321 323 322 320 319 316 316 314 314 311 311 309

GFSFLT2_850_thetae_060.txt.gz
Theta_e
335 336 333 329 331 325 325 313 309 318 326 327 325 317 314 315 314 312 312 311 309 314 317 316 316 317 318 316 315 314 312 306
334 335 333 331 329 328 326 315 311 311 321 324 324 319 314 315 314 314 315 313 310 309 313 315 315 315 315 315 314 313 311 308
333 334 333 333 331 329 323 313 316 319 322 324 324 321 315 315 315 317 317 315 312 310 310 313 315 315 314 313 312 311 309 309
334 334 333 330 327 328 318 312 310 317 320 323 322 321 316 315 316 317 318 317 314 312 310 311 312 313 313 312 310 309 309 309
334 334 332 327 327 320 319 309 313 317 319 321 321 320 317 316 317 318 318 318 317 317 316 314 312 311 311 311 310 309 309 309
332 331 329 328 324 319 314 314 315 316 321 321 320 318 316 316 317 318 318 318 318 318 318 318 317 315 310 311 310 309 309 310
330 330 330 327 322 317 318 317 318 320 320 320 316 317 315 315 317 318 318 319 319 319 319 319 318 317 310 311 311 310 310 310
327 328 327 324 323 321 313 319 321 320 320 316 315 315 315 315 316 317 318 318 319 320 320 320 319 319 313 311 311 311 311 311
326 326 325 325 319 316 318 316 318 319 318 317 315 316 315 316 316 317 317 319 320 321 321 320 319 318 318 312 311 311 311 311
324 325 325 321 320 315 315 322 320 317 317 314 315 316 317 317 318 321 321 321 322 322 321 321 320 319 319 316 311 310 310 311
321 321 321 320 317 318 320 321 318 317 317 316 316 316 317 318 319 321 322 323 322 322 322 321 321 320 319 316 314 313 310 310
320 321 319 317 316 318 319 317 316 315 315 315 316 318 321 322 321 322 323 323 323 323 322 322 321 320 319 317 314 312 310 308
320 318 317 315 315 315 315 315 314 315 316 315 318 320 319 320 319 319 320 322 322 323 323 322 321 320 318 316 312 312 310 308
318 316 315 314 315 315 315 316 316 316 316 316 317 315 314 313 313 314 319 322 321 323 323 322 321 320 318 316 314 313 310 311
318 317 317 316 317 317 316 316 316 316 317 316 315 315 312 314 319 319 316 321 321 322 323 322 321 320 319 318 313 312 314 313
318 319 319 319 317 317 315 315 315 314 314 314 315 312 315 318 319 322 322 320 320 321 323 323 322 320 320 319 317 314 313 311
317 318 318 317 318 316 315 315 314 314 314 315 312 311 316 320 321 322 321 321 320 321 322 322 322 321 321 320 318 316 312 312
315 315 314 314 313 313 313 313 314 314 314 314 313 312 315 319 322 323 322 323 323 322 321 322 322 321 321 320 319 317 314 311
317 316 316 315 314 314 314 314 314 315 318 318 318 319 319 320 322 323 324 324 324 324 322 322 323 322 321 320 318 316 314 312
322 321 318 317 317 317 318 319 320 322 323 323 322 319 320 321 321 322 323 324 324 323 322 323 323 323 321 319 318 317 315 314

GFSFLT2_850_thetae_063.txt.gz
Theta_e
335 334 333 333 331 329 329 325 319 323 317 316 314 313 313 312 311 310 316 319 317 317 319 320 320 319 315 314 312 310 307 307
333 334 334 325 327 327 324 324 319 327 320 316 314 314 313 312 310 309 311 318 316 316 316 317 316 316 314 313 312 310 309 307
333 333 330 329 330 325 322 318 322 324 324 316 315 315 314 312 312 310 309 315 315 315 315 316 315 315 313 312 310 309 309 308
333 332 329 330 327 326 325 323 320 322 324 320 314 315 313 314 315 314 310 309 310 314 315 315 314 313 312 311 310 309 309 309
333 332 332 330 329 325 325 323 321 322 319 322 315 315 314 316 317 316 314 312 310 311 313 312 311 311 311 310 310 309 309 310
332 333 330 330 328 327 323 318 315 318 320 322 316 315 315 317 318 318 317 316 316 314 312 312 312 310 310 310 309 310 310 311
330 330 330 329 327 327 318 312 317 321 322 320 319 316 316 317 318 318 318 318 318 318 318 318 318 316 310 311 310 310 311 311
328 325 327 327 324 319 313 318 321 323 322 321 319 316 317 317 318 318 318 318 318 319 319 319 319 318 313 311 310 310 311 311
327 326 326 324 321 317 317 317 315 319 321 321 319 316 316 317 317 317 318 318 319 319 319 320 319 318 317 312 310 310 311 311
326 326 326 325 323 322 317 318 322 321 318 320 318 315 315 316 316 316 316 318 319 320 321 320 320 319 318 317 316 311 310 311
324 324 324 323 321 319 321 324 319 317 320 316 315 315 315 316 316 316 317 319 321 321 321 321 321 320 319 318 315 314 314 312
322 323 323 323 319 319 319 316 320 321 319 316 317 316 316 316 316 318 321 322 322 322 322 322 321 321 320 319 316 316 314 314
320 322 322 320 317 316 319 320 320 320 318 315 315 316 319 319 318 320 321 321 321 322 322 322 322 321 320 319 317 316 315 315
318 319 320 319 317 315 315 320 318 319 316 316 314 316 318 321 320 319 320 319 320 322 323 323 322 321 321 319 318 315 314 314
319 320 319 317 317 318 320 319 317 316 316 315 315 315 320 320 319 320 318 315 316 318 320 322 322 322 322 320 316 315 316 315
319 319 317 316 316 316 318 319 316 315 315 315 315 317 316 315 314 313 315 320 318 315 318 320 322 322 322 320 319 317 315 315
318 318 317 316 315 316 316 316 315 315 314 316 315 315 316 315 312 312 315 316 321 322 321 321 321 321 321 321 320 319 318 317
317 318 318 318 317 317 317 317 316 315 316 316 315 315 315 315 315 313 315 318 321 322 322 321 320 321 321 322 321 320 319 318
315 318 318 318 318 318 317 317 316 316 316 316 315 314 314 314 314 312 318 320 322 323 322 323 323 322 322 322 322 321 320 319
316 316 316 316 316 316 316 316 316 315 314 314 314 314 314 313 313 313 314 318 321 323 323 322 318 322 322 322 322 321 319 318

GFSFLT2_850_thetae_066.txt.gz
Theta_e
332 332 330 328 329 329 330 324 322 319 314 315 312 314 317 315 315 316 315 318 319 319 319 318 315 314 312 310 308 307 307 307
332 332 331 329 331 330 327 325 323 312 315 314 314 312 312 314 319 317 318 318 318 319 319 318 315 313 312 310 309 309 308 307
328 330 329 328 328 327 328 325 320 318 315 314 313 312 312 314 318 318 317 316 317 318 318 316 314 313 311 310 309 309 308 308
331 322 330 328 327 325 328 325 320 318 316 315 313 312 310 311 316 317 317 316 315 316 315 315 313 312 310 309 309 309 309 308
332 330 330 326 325 325 325 322 320 321 318 315 314 312 309 308 310 315 316 316 315 315 314 313 312 311 310 309 309 310 310 310
331 331 330 329 329 324 323 323 322 320 320 316 314 312 313 310 309 309 310 311 311 312 313 311 311 311 310 310 309 310 311 311
330 330 330 329 326 325 325 322 321 321 321 316 314 314 315 314 313 310 310 310 310 311 311 313 311 310 310 310 309 310 310 311
327 329 328 329 327 325 323 321 320 322 321 317 315 314 316 317 316 315 314 315 317 316 317 318 318 315 310 310 309 310 310 310
326 328 328 328 326 325 323 322 321 320 320 321 316 315 317 318 318 318 317 318 318 318 319 318 318 318 313 310 310 309 310 310
325 326 326 327 325 325 323 320 315 319 322 322 316 315 316 318 318 318 318 318 319 319 319 319 319 318 317 316 313 312 310 310
324 325 325 326 324 320 317 314 319 317 322 321 318 316 317 317 317 317 317 317 318 319 320 320 320 320 319 318 318 314 312 313
322 324 324 324 324 323 317 321 320 317 322 321 321 316 316 316 316 316 316 315 317 320 321 321 321 321 320 320 319 317 315 314
320 322 323 323 324 322 323 319 316 322 321 321 318 316 315 316 316 316 316 315 319 320 321 322 322 322 321 320 320 319 318 317
319 321 322 322 323 321 319 320 322 320 317 316 318 316 315 316 316 316 316 317 320 322 322 322 322 322 321 320 320 320 319 318
318 318 320 321 320 319 320 319 320 321 317 317 316 316 317 317 317 318 317 320 321 320 320 319 321 322 322 320 319 319 319 318
318 318 319 320 319 317 317 319 319 320 317 319 316 316 316 316 317 320 320 321 320 315 316 317 320 321 321 322 321 321 318 317
317 319 319 319 318 317 317 318 318 319 319 316 315 315 315 315 318 319 317 315 313 314 318 321 320 319 320 321 322 321 320 318
317 318 319 318 316 316 316 316 319 318 318 317 316 316 316 315 315 316 313 312 312 314 317 320 321 321 321 321 321 321 321 321
317 316 318 318 317 316 316 318 319 319 317 316 315 315 315 315 315 316 315 315 314 313 318 320 321 322 322 322 322 322 322 321
316 316 316 317 318 317 316 316 315 316 317 317 316 315 315 316 316 315 315 315 314 313 313 316 319 319 321 317 318 321 321 321

GFSFLT2_850_thetae_069.txt.gz
Theta_e
333 331 328 328 328 327 327 328 328 319 317 320 315 321 321 323 318 317 319 319 318 317 311 311 310 308 307 307 307 307 306 307
333 331 329 329 329 327 327 328 327 323 323 320 316 321 322 320 317 318 319 320 319 317 314 313 311 310 309 309 308 308 307 307
329 331 330 330 330 328 329 328 323 320 322 321 315 322 322 316 317 318 319 319 319 318 315 313 311 310 309 309 309 308 308 309
329 327 328 327 330 329 326 322 321 318 320 321 314 316 315 315 318 318 317 319 320 318 315 313 311 310 309 309 309 308 308 308
329 328 324 325 326 323 324 323 322 318 320 318 315 312 317 318 317 316 317 319 319 316 314 312 311 310 310 309 310 309 309 309
330 330 325 326 328 326 327 324 321 321 318 315 313 313 317 317 317 316 315 315 315 314 313 312 311 310 309 310 310 310 310 310
330 328 328 328 327 326 326 322 318 317 319 314 312 311 311 316 316 316 315 315 314 313 311 311 311 310 310 309 310 311 311 311
328 328 330 329 327 326 325 324 318 317 318 314 312 311 309 309 312 314 313 313 312 311 311 311 310 310 310 310 309 310 310 311
327 326 328 328 327 324 323 320 321 319 318 315 312 313 312 310 309 310 311 311 311 313 317 318 317 312 310 310 309 309 310 310
326 326 327 327 326 322 322 322 321 320 318 316 314 314 314 314 311 310 312 317 317 318 318 318 318 317 316 315 311 310 309 310
325 323 325 326 325 325 323 323 322 322 316 316 314 313 315 315 314 315 317 318 318 319 319 319 319 319 318 318 318 315 311 310
324 325 325 325 325 325 324 323 321 321 321 320 316 314 316 317 317 317 318 318 319 319 320 320 320 320 320 320 319 318 316 314
323 324 324 324 325 325 325 323 319 320 319 319 318 315 315 317 318 318 318 317 317 317 319 321 321 321 320 320 320 319 319 317
321 322 323 324 324 322 321 320 316 318 317 322 321 316 315 316 317 317 316 316 316 315 318 319 321 321 321 321 319 320 320 320
320 321 321 322 323 323 320 319 318 321 319 321 321 317 316 316 316 316 316 316 316 317 318 318 320 321 322 321 320 320 320 319
319 320 321 322 321 321 321 321 320 319 318 321 321 318 316 316 316 316 316 317 317 317 318 317 317 318 320 320 321 321 320 319
317 318 319 320 321 321 321 320 319 320 321 320 318 316 316 316 316 316 318 317 318 318 319 315 318 320 320 319 320 321 321 320
317 318 319 320 320 320 319 321 320 320 319 316 316 316 316 317 316 316 317 316 319 317 314 314 315 318 319 321 321 321 321 320
316 316 318 318 319 319 318 318 318 318 320 317 316 317 316 316 316 316 316 318 318 313 313 313 313 314 318 320 321 320 320 320
319 316 316 318 318 317 317 318 318 319 319 319 318 318 316 315 315 315 315 315 316 315 316 315 314 314 313 316 319 317 317 320